Regional Weather Roundup
Issued by NWS Sioux Falls, SD

Home | Current Version | Previous Version | Graphics & Text | Print | Product List | Glossary Off
Versions: 1 2 3 4 5 6 7 8 9 10 11 12 13 14 15 16 17 18 19 20 21 22 23 24 25 26 27 28 29 30 31 32 33 34 35 36 37 38 39 40 41 42 43 44 45 46 47 48 49 50

000
ASUS43 KFSD 070910
RWRFSD

WEATHER ROUNDUP FOR SE SOUTH DAKOTA/SW MINNESOTA/NW IOWA
NATIONAL WEATHER SERVICE SIOUX FALLS SD
300 AM CST WED DEC 07 2016

NOTE: "FAIR" INDICATES FEW OR NO CLOUDS BELOW 12,000 FEET WITH NO
SIGNIFICANT WEATHER AND OR OBSTRUCTIONS TO VISIBILITY.


SDZ038>040-050-052>070-071000-
SOUTHEAST SOUTH DAKOTA

CITY           SKY/WX    TMP DP  RH WIND       PRES   REMARKS
BROOKINGS      CLEAR      7   1  76 W22G30    30.03R WCI -14
CHAMBERLAIN    CLEAR     10   3  74 W23       30.18R WCI -10
HURON          CLEAR      7   1  76 NW20      30.13R WCI -13
MADISON        FAIR       7   1  78 NW22G29   30.06R WCI -14
MITCHELL       CLEAR      9   2  73 W17G25    30.18R WCI  -9
SIOUX FALLS    CLEAR     10   3  73 W22G28    30.10R WCI -10
WINNER         FAIR       8   0  69 NW12      30.19R WCI  -7
YANKTON        CLOUDY    12   3  67 W15       30.18R WCI  -4
$$

MNZ071-072-080-081-089-090-097-098-071000-
SOUTHWEST MINNESOTA

CITY           SKY/WX    TMP DP  RH WIND       PRES   REMARKS
FAIRMONT       CLEAR     13   7  77 W23G30    30.03R WCI  -6
JACKSON        CLEAR     10   5  79 W20G30    30.03R WCI  -8
LUVERNE        CLEAR     10   3  72 W25G31    30.09R WCI -10
MARSHALL       CLEAR     11   5  77 W18G30    30.01R WCI  -7
MONTEVIDEO     PTCLDY    14   7  73 NW17G25   29.99R WCI  -3
PIPESTONE      CLEAR      9   3  78 NW24G31   30.03R WCI -12
REDWOOD FALLS  CLEAR     13   5  70 W20       29.98R WCI  -5
TRACY          CLEAR     12   7  79 W13G22    30.01R WCI  -3
WINDOM         CLEAR     10   7  85 W18G26    30.01R WCI  -8
WORTHINGTON    PTCLDY     9   5  84 W24       30.04R WCI -12
$$

IAZ001>003-012>014-020>022-031-032-NEZ013-014-SDZ071-071000-
NORTHWEST IOWA

CITY           SKY/WX    TMP DP  RH WIND       PRES   REMARKS
CHEROKEE       CLOUDY    13   8  80 W10G16    30.13R WCI   0
DENISON        PTCLDY    16   9  73 W14       30.13F WCI   1
ESTHERVILLE    CLEAR     11   7  84 W20G32    30.04R WCI  -7
LE MARS        CLOUDY    14   7  73 NW14      30.16R WCI  -1
ORANGE CITY    CLOUDY    12   9  85 W26       30.09S WCI  -8
SHELDON        MOCLDY    12   7  79 W17G24    30.08S WCI  -5
SIOUX CITY     PTCLDY    16   7  67 W14       30.18R WCI   2
SPENCER        CLOUDY    12   6  77 W28       30.08R WCI  -9
STORM LAKE     CLOUDY    12   9  85 W22       30.10R WCI  -7
$$

ABBREVIATIONS USED IN REMARKS
   TC - TEMPERATURE IN CELSIUS
  WCI - WIND CHILL INDEX
   HX - HEAT INDEX
  VSB - VISIBILITY





USA.gov is the U.S. government's official web portal to all federal, state and local government web resources and services.